GW6443 Weather Reports


Display with metric or nautical units.
time (UTC)temp
F
wind
direction
speed
MPH
gust
MPH
rain 1hr
in
rain 24hr
in
rain mn
in
humidity
%
barometer
mb
20260504034312 41 267 1.0 2.0 0.00 0.00 0.00 76 1012.7
20260504033809 41 263 1.0 2.0 0.00 0.00 0.00 75 1012.7
20260504033307 41 274 0.0 2.0 0.00 0.00 0.00 75 1012.6
20260504032803 41 251 2.0 2.0 0.00 0.00 0.00 74 1012.6
20260504032300 41 79 0.0 2.0 0.00 0.00 0.00 74 1012.7
20260504031757 41 147 0.0 2.0 0.00 0.00 0.00 73 1012.7
20260504031254 41 154 0.0 1.0 0.00 0.00 0.00 74 1012.7
20260504030750 41 141 1.0 2.0 0.00 0.00 0.00 75 1012.6
20260504030248 41 124 1.0 2.0 0.00 0.00 0.00 73 1012.7
20260504025744 41 129 1.0 2.0 0.00 0.00 0.00 72 1012.7
20260504025241 41 102 0.0 2.0 0.00 0.00 0.00 73 1012.7
20260504024738 41 160 2.0 2.0 0.00 0.00 0.00 72 1012.7
20260504024234 41 157 2.0 2.0 0.00 0.00 0.00 74 1012.7
20260504023731 41 119 0.0 2.0 0.00 0.00 0.00 71 1012.9
20260504023227 41 123 2.0 2.0 0.00 0.00 0.00 72 1012.9
20260504022723 42 190 2.0 2.0 0.00 0.00 0.00 70 1012.7
20260504022220 42 89 0.0 2.0 0.00 0.00 0.00 70 1012.6
20260504021717 42 130 0.0 2.0 0.00 0.00 0.00 69 1012.6
20260504021214 43 131 0.0 2.0 0.00 0.00 0.00 68 1012.6
20260504020711 43 180 1.0 2.0 0.00 0.00 0.00 68 1012.6
20260504020207 43 142 1.0 2.0 0.00 0.00 0.00 66 1012.7
20260504015704 43 164 1.0 2.0 0.00 0.00 0.00 67 1012.8
20260504015200 43 145 0.0 2.0 0.00 0.00 0.00 66 1012.5
20260504014656 44 105 1.0 2.0 0.00 0.00 0.00 66 1012.7
20260504014153 44 140 0.0 2.0 0.00 0.00 0.00 64 1012.6
20260504013651 44 175 0.0 2.0 0.00 0.00 0.00 66 1012.8
20260504013148 45 156 1.0 2.0 0.00 0.00 0.00 61 1012.5
20260504012645 45 183 0.0 1.0 0.00 0.00 0.00 61 1012.6
20260504012143 45 131 0.0 2.0 0.00 0.00 0.00 62 1012.4
20260504011639 45 179 2.0 2.0 0.00 0.00 0.00 62 1012.3
20260504011136 46 119 1.0 2.0 0.00 0.00 0.00 61 1012.5
20260504010631 46 180 2.0 2.0 0.00 0.00 0.00 59 1012.4
20260504010127 47 185 2.0 3.0 0.00 0.00 0.00 57 1012.5
20260504005625 47 126 2.0 2.0 0.00 0.00 0.00 55 1012.5
20260504005121 48 118 2.0 4.0 0.00 0.00 0.00 53 1012.4
20260504004620 48 135 1.0 3.0 0.00 0.00 0.00 53 1012.3
20260504004117 48 145 2.0 3.0 0.00 0.00 0.00 55 1012.5
20260504003613 49 172 2.0 3.0 0.00 0.00 0.00 51 1012.3
20260504003109 49 195 2.0 3.0 0.00 0.00 0.00 52 1012.4
20260504002606 49 153 2.0 3.0 0.00 0.00 0.00 52 1012.2
20260504002104 50 132 2.0 3.0 0.00 0.00 0.00 50 1012.1
20260504001601 51 140 1.0 2.0 0.00 0.00 0.00 47 1012.2
20260504001057 52 156 1.0 2.0 0.00 0.00 0.00 45 1012.2
20260504000554 53 137 2.0 3.0 0.00 0.00 0.00 40 1012.1
20260504000052 54 172 2.0 3.0 0.00 0.00 0.00 39 1012.0
20260503235550 54 143 2.0 4.0 0.00 0.00 0.00 38 1012.1
20260503235047 54 181 3.0 4.0 0.00 0.00 0.00 38 1012.0
20260503234544 54 185 3.0 6.0 0.00 0.00 0.00 38 1012.1
20260503234043 55 152 2.0 4.0 0.00 0.00 0.00 38 1012.2
20260503233539 55 101 4.0 6.0 0.00 0.00 0.00 39 1012.1
20260503233035 55 94 2.0 5.0 0.00 0.00 0.00 38 1012.2
20260503232532 56 47 4.0 7.0 0.00 0.00 0.00 36 1012.0
20260503232029 56 194 3.0 6.0 0.00 0.00 0.00 36 1012.0
20260503231527 56 172 4.0 6.0 0.00 0.00 0.00 36 1012.0
20260503231024 56 142 4.0 7.0 0.00 0.00 0.00 37 1012.0
20260503230520 56 180 3.0 17.0 0.00 0.00 0.00 36 1012.0
20260503230018 56 114 2.0 4.0 0.00 0.00 0.00 37 1012.0
20260503225514 56 206 5.0 7.0 0.00 0.00 0.00 36 1011.9
20260503225009 56 188 4.0 5.0 0.00 0.00 0.00 35 1011.8
20260503224507 57 213 0.0 6.0 0.00 0.00 0.00 34 1012.1
20260503224005 58 215 4.0 5.0 0.00 0.00 0.00 34 1012.0
20260503223503 58 192 2.0 7.0 0.00 0.00 0.00 33 1011.9
20260503222957 58 164 2.0 5.0 0.00 0.00 0.00 33 1012.1
20260503222456 58 206 5.0 8.0 0.00 0.00 0.00 33 1012.2
20260503221954 59 190 4.0 11.0 0.00 0.00 0.00 34 1012.0
20260503221452 59 174 5.0 5.0 0.00 0.00 0.00 33 1012.2
20260503220949 57 48 2.0 5.0 0.00 0.00 0.00 36 1012.0
20260503220445 57 251 3.0 11.0 0.00 0.00 0.00 36 1011.9
20260503215942 57 172 0.0 9.0 0.00 0.00 0.00 36 1012.2
20260503215439 59 156 1.0 10.0 0.00 0.00 0.00 33 1012.1
20260503214937 59 221 3.0 10.0 0.00 0.00 0.00 33 1011.9
20260503214434 59 190 4.0 10.0 0.00 0.00 0.00 34 1012.2
20260503213931 57 112 5.0 11.0 0.00 0.00 0.00 34 1012.2
20260503213430 59 140 4.0 4.0 0.00 0.00 0.00 34 1012.2
20260503212925 58 115 4.0 9.0 0.00 0.00 0.00 33 1012.2
20260503212423 58 124 0.0 5.0 0.00 0.00 0.00 36 1012.0
20260503211921 57 218 5.0 6.0 0.00 0.00 0.00 34 1012.0
20260503211417 57 123 3.0 9.0 0.00 0.00 0.00 35 1012.2
20260503210912 56 175 2.0 9.0 0.00 0.00 0.00 34 1012.1
20260503210410 58 282 4.0 8.0 0.00 0.00 0.00 33 1012.0
20260503205910 57 0 2.0 9.0 0.00 0.00 0.00 34 1012.1
20260503205408 57 243 6.0 8.0 0.00 0.00 0.00 36 1012.0
20260503204904 58 301 8.0 13.0 0.00 0.00 0.00 35 1012.2
20260503204401 58 230 4.0 10.0 0.00 0.00 0.00 33 1012.2
20260503203858 58 342 3.0 8.0 0.00 0.00 0.00 36 1012.1
20260503203355 60 266 11.0 11.0 0.00 0.00 0.00 33 1012.2
20260503202852 59 191 4.0 9.0 0.00 0.00 0.00 34 1012.0
20260503202350 58 339 10.0 13.0 0.00 0.00 0.00 33 1012.4
20260503201849 58 277 7.0 12.0 0.00 0.00 0.00 33 1012.4
20260503201345 58 204 3.0 8.0 0.00 0.00 0.00 35 1012.4
20260503200843 58 169 2.0 10.0 0.00 0.00 0.00 33 1012.5
20260503200338 57 180 6.0 9.0 0.00 0.00 0.00 33 1012.5
20260503195836 57 8 2.0 9.0 0.00 0.00 0.00 34 1012.5
20260503195332 57 248 4.0 7.0 0.00 0.00 0.00 35 1012.4
20260503194830 57 233 0.0 6.0 0.00 0.00 0.00 36 1012.7
20260503194325 56 167 3.0 9.0 0.00 0.00 0.00 33 1012.8
20260503193822 57 304 5.0 9.0 0.00 0.00 0.00 35 1012.7
20260503193318 58 253 4.0 11.0 0.00 0.00 0.00 40 1012.6
20260503192814 56 50 4.0 5.0 0.00 0.00 0.00 36 1012.8
20260503192309 57 351 4.0 11.0 0.00 0.00 0.00 34 1012.9
20260503191806 55 257 2.0 9.0 0.00 0.00 0.00 36 1012.8
20260503191303 55 320 2.0 10.0 0.00 0.00 0.00 37 1012.9
20260503190800 55 168 3.0 19.0 0.00 0.00 0.00 38 1013.2
20260503190256 56 301 9.0 15.0 0.00 0.00 0.00 35 1012.9
20260503185754 56 292 6.0 9.0 0.00 0.00 0.00 35 1013.2
20260503185249 56 149 4.0 13.0 0.00 0.00 0.00 33 1013.2
20260503184744 56 217 5.0 14.0 0.00 0.00 0.00 38 1013.2
20260503184241 56 310 2.0 8.0 0.00 0.00 0.00 35 1013.3
20260503183737 56 306 4.0 11.0 0.00 0.00 0.00 36 1013.5
20260503183235 55 325 6.0 10.0 0.00 0.00 0.00 35 1013.4
20260503182732 55 43 7.0 14.0 0.00 0.00 0.00 39 1013.3
20260503182231 55 332 2.0 11.0 0.00 0.00 0.00 35 1013.3
20260503181727 55 11 6.0 16.0 0.00 0.00 0.00 37 1013.5
20260503181224 55 202 2.0 12.0 0.00 0.00 0.00 38 1013.4
20260503180720 55 355 5.0 10.0 0.00 0.00 0.00 40 1013.4
20260503180219 54 198 6.0 9.0 0.00 0.00 0.00 39 1013.2
20260503175715 54 255 4.0 8.0 0.00 0.00 0.00 37 1013.4
20260503175213 54 236 2.0 9.0 0.00 0.00 0.00 40 1013.6
20260503174709 55 10 4.0 9.0 0.00 0.00 0.00 38 1013.8
20260503174207 54 259 7.0 8.0 0.00 0.00 0.00 38 1013.6
20260503173702 55 34 4.0 5.0 0.00 0.00 0.00 38 1013.6
20260503173158 55 206 4.0 13.0 0.00 0.00 0.00 42 1013.6
20260503172655 54 311 5.0 11.0 0.00 0.00 0.00 42 1013.8
20260503172152 53 322 6.0 10.0 0.00 0.00 0.00 38 1013.9
20260503171649 53 273 13.0 19.0 0.00 0.00 0.00 37 1014.1
20260503171146 55 340 8.0 15.0 0.00 0.00 0.00 39 1013.8
20260503170643 55 218 2.0 6.0 0.00 0.00 0.00 45 1013.9
20260503170140 54 192 4.0 5.0 0.00 0.00 0.00 41 1014.0
20260503150531 50 296 17.0 17.0 0.00 0.00 0.00 44 1014.8
20260503130926 44 42 4.0 5.0 0.00 0.00 0.00 60 1014.9
20260503130424 43 175 3.0 7.0 0.00 0.00 0.00 59 1015.2
20260503110823 36 28 3.0 5.0 0.00 0.00 0.00 77 1014.5
20260503110320 35 217 2.0 4.0 0.00 0.00 0.00 77 1014.6
20260503100246 33 80 1.0 3.0 0.00 0.00 0.00 81 1014.0
20260503090206 31 99 0.0 2.0 0.00 0.00 0.00 90 1013.9
20260503081636 31 126 2.0 2.0 0.00 0.00 0.00 89 1013.5
20260503081132 31 129 0.0 2.0 0.00 0.00 0.00 89 1013.8
20260503080628 31 131 1.0 1.0 0.00 0.00 0.00 89 1013.4
20260503080126 32 60 1.0 2.0 0.00 0.00 0.00 88 1013.4
20260503072602 33 120 1.0 1.0 0.00 0.00 0.00 85 1013.3
20260503072100 33 120 1.0 2.0 0.00 0.00 0.00 84 1013.3
20260503071556 33 154 1.0 2.0 0.00 0.00 0.00 85 1013.0
20260503071053 33 125 0.0 2.0 0.00 0.00 0.00 85 1013.2
20260503070549 33 103 1.0 2.0 0.00 0.00 0.00 85 1013.2
20260503055009 34 151 1.0 2.0 0.00 0.00 0.00 83 1013.2
20260503054504 34 336 0.0 1.0 0.00 0.00 0.00 82 1013.2
20260503054002 35 129 0.0 2.0 0.00 0.00 0.00 82 1013.2
20260503053500 34 131 2.0 2.0 0.00 0.00 0.00 82 1013.4
20260503052956 34 55 0.0 1.0 0.00 0.00 0.00 83 1013.5
20260503052454 34 145 1.0 2.0 0.00 0.00 0.00 82 1013.3
20260503051950 34 107 1.0 2.0 0.00 0.00 0.00 81 1013.4
20260503051446 34 114 2.0 2.0 0.00 0.00 0.00 82 1013.5
20260503050943 35 102 1.0 2.0 0.00 0.00 0.00 80 1013.5
20260503050439 35 112 2.0 2.0 0.00 0.00 0.00 78 1013.4
20260503045937 36 142 2.0 2.0 0.00 0.00 0.00 78 1013.4
20260503045434 37 124 1.0 1.0 0.00 0.00 0.00 76 1013.5
20260503044931 37 140 0.0 3.0 0.00 0.00 0.00 73 1013.4
20260503044428 37 103 2.0 4.0 0.00 0.00 0.00 74 1013.4
20260503043926 37 119 2.0 3.0 0.00 0.00 0.00 75 1013.4
20260503043421 38 180 1.0 2.0 0.00 0.00 0.00 71 1013.3
20260503042918 39 253 2.0 4.0 0.00 0.00 0.00 69 1013.6
20260503042415 39 70 2.0 2.0 0.00 0.00 0.00 72 1013.3
20260503041911 39 27 2.0 4.0 0.00 0.00 0.00 69 1013.5
20260503041408 39 45 3.0 4.0 0.00 0.00 0.00 69 1013.4
20260503040906 39 19 0.0 1.0 0.00 0.00 0.00 71 1013.4
20260503040403 39 128 3.0 3.0 0.00 0.00 0.00 74 1013.5
20260503035900 39 144 1.0 2.0 0.00 0.01 0.01 72 1013.6
20260503035357 39 164 1.0 2.0 0.00 0.01 0.01 72 1013.5
20260503034854 39 106 2.0 3.0 0.00 0.01 0.01 71 1013.3